Regional Weather Roundup
Issued by NWS

Home | Current Version | Previous Version | Graphics & Text | Print | Product List | Glossary On
Versions: 1 2 3 4 5 6 7 8 9 10 11 12 13 14 15 16 17 18 19 20 21 22 23 24 25 26 27 28 29 30 31 32 33 34 35 36 37 38 39 40 41 42 43 44 45 46 47 48 49 50
682
ASUS45 KCYS 270010
RWRWY

WYOMING REGIONAL WEATHER ROUNDUP
NATIONAL WEATHER SERVICE CHEYENNE WY
600 PM MDT MON JUN 26 2017

NOTE:  "FAIR" INDICATES FEW OR NO CLOUDS BELOW 12,000 FEET
WITH NO SIGNIFICANT WEATHER AND/OR OBSTRUCTIONS TO VISIBILITY.

WYZ001-270100-
YELLOWSTONE NATIONAL PARK

CITY           SKY/WX    TMP DP  RH WIND       PRES   REMARKS
LK YELLOWSTONE   N/A     73  27  18 W9        30.23F
6HR MIN TEMP:  64; 6HR MAX TEMP:  77;

W YELLOWSTONE  NOT AVBL

$$
WYZ002>013-054>058-071-098>099-270100-
NORTHERN WYOMING

CITY           SKY/WX    TMP DP  RH WIND       PRES   REMARKS
JACKSON        SUNNY     81  36  19 S12       30.09F
CODY           FAIR      88  31  13 S17       29.96F
GREYBULL       FAIR      91  17   6 S9        29.87F
6HR MIN TEMP:  83; 6HR MAX TEMP:  95;

WORLAND        FAIR      92  14   5 S8G17     29.91F
6HR MIN TEMP:  83; 6HR MAX TEMP:  95;

SHERIDAN       FAIR      88  42  20 SE10      29.93F
6HR MIN TEMP:  82; 6HR MAX TEMP:  89;

BUFFALO        FAIR      86  38  18 E9        30.01F
6HR MIN TEMP:  77; 6HR MAX TEMP:  86;

GILLETTE       FAIR      86  38  18 SE15      29.99F
6HR MIN TEMP:  78; 6HR MAX TEMP:  87;

NEWCASTLE      FAIR      81  34  18 S15       30.07F

$$
WYZ014>020-022>026-101>103-270100-
CENTRAL WYOMING

CITY           SKY/WX    TMP DP  RH WIND       PRES   REMARKS
BIG PINEY      FAIR      78  32  18 NE14G25   30.17F
6HR MIN TEMP:  72; 6HR MAX TEMP:  83;

PINEDALE       FAIR      77  30  18 NE15      30.19F
DUBOIS         FAIR      73  32  21 SW26G39   30.16F
LANDER         FAIR      85  35  16 NW7       30.04F
6HR MIN TEMP:  75; 6HR MAX TEMP:  90;

RIVERTON       FAIR      87  27  11 E5        30.02F
6HR MIN TEMP:  75; 6HR MAX TEMP:  90;

CASPER         FAIR      87  25  10 SE5       30.04F
6HR MIN TEMP:  79; 6HR MAX TEMP:  90;

DOUGLAS        FAIR      83  41  22 SE15G22   30.08F
6HR MIN TEMP:  77; 6HR MAX TEMP:  85;


$$
WYZ021-027>030-104>119-270100-
SOUTHERN WYOMING

CITY           SKY/WX    TMP DP  RH WIND       PRES   REMARKS
EVANSTON       FAIR      83  32  16 W15       30.18F
6HR MIN TEMP:  76; 6HR MAX TEMP:  86;

KEMMERER         N/A     81  28  15 W9        30.20F
FORT BRIDGER   FAIR      80  36  20 NE5       30.22S
ROCK SPRINGS   FAIR      82  25  12 SW17      30.15F
6HR MIN TEMP:  78; 6HR MAX TEMP:  88;

DIXON          FAIR      87  22   9 W5G13     30.17F
RAWLINS        FAIR      85  17   8 W10       30.16F
6HR MIN TEMP:  76; 6HR MAX TEMP:  86;

SARATOGA       FAIR      82  21  10 W7G18     30.19F
LARAMIE        FAIR      80  21  11 E9        30.21F
6HR MIN TEMP:  74; 6HR MAX TEMP:  82;

CHEYENNE       FAIR      81  39  22 E13       30.17F
6HR MIN TEMP:  76; 6HR MAX TEMP:  82;

TORRINGTON     FAIR      83  38  20 SE17      30.06F
6HR MIN TEMP:  78; 6HR MAX TEMP:  85;

PINE BLUFFS    FAIR      81  43  26 SE13      30.13F

$$




USA.gov is the U.S. government's official web portal to all federal, state and local government web resources and services.